This demonstration page uses our WeatherBlox Daily Observations layout. Learn more.

Left ArrowRight Arrow

Hourly Observations for September 30, 2022

Temp ( °F °C ) Dew Point ( °F °C ) Humidity (%) Winds ( mph kmh ) Pressure ( in mb ) Visibility ( mi km ) Precip ( " mm )
12:52 am 00:52 Mostly Clear 57 13.9 41 5 55 55 SSE 13 20 30.17 1022 10 16 0.00 0.00
1:52 am 01:52 Mostly Clear 55 12.8 40 4.4 57 57 SSE 12 19 30.16 1021 10 16 0.00 0.00
2:52 am 02:52 Mostly Clear 54 12.2 40 4.4 59 59 SSE 10 17 30.17 1022 10 16 0.00 0.00
3:52 am 03:52 Mostly Clear 51 10.6 40 4.4 65 65 SE 9 15 30.16 1021 10 16 0.00 0.00
4:52 am 04:52 Partly Cloudy 51 10.6 41 5 68 68 SSE 10 17 30.16 1021 10 16 0.00 0.00
5:52 am 05:52 Mostly Cloudy 51 10.6 41 5 68 68 SSE 9 15 30.17 1022 10 16 0.00 0.00
6:52 am 06:52 Mostly Cloudy 52 11.1 41 5 66 66 SSE 9 15 30.16 1021 10 16 0.00 0.00
7:52 am 07:52 Mostly Cloudy 54 12.2 41 5 61 61 SSE 10 17 30.16 1021 10 16 0.00 0.00
8:52 am 08:52 Mostly Cloudy 55 12.8 42 5.6 62 62 SSE 13 20 30.16 1021 10 16 0.00 0.00
9:52 am 09:52 Mostly Cloudy 61 16.1 43 6.1 51 51 SSE 17 28 30.14 1021 10 16 0.00 0.00
10:52 am 10:52 Mostly Cloudy 66 18.9 43 6.1 43 43 SSE 17 28 30.14 1021 10 16 0.00 0.00
11:52 am 11:52 Mostly Cloudy 69 20.6 44 6.7 40 40 SSE 18 30 30.12 1020 10 16 0.00 0.00
12:52 pm 12:52 Mostly Cloudy 75 23.9 44 6.7 33 33 SE 16 26 30.09 1019 10 16 0.00 0.00
1:52 pm 13:52 Mostly Cloudy 76 24.4 44 6.7 32 32 SE 21 33 30.06 1018 10 16 0.00 0.00
2:52 pm 14:52 Mostly Cloudy 77 25 44 6.7 31 31 SSE 17 28 30.04 1017 10 16 0.00 0.00
3:52 pm 15:52 Partly Cloudy 79 26.1 44 6.7 29 29 SSE 18 30 30.02 1017 10 16 0.00 0.00
4:52 pm 16:52 Partly Cloudy 77 25 44 6.7 31 31 SE 18 30 30.01 1016 10 16 0.00 0.00
5:52 pm 17:52 Partly Cloudy 75 23.9 44 6.7 33 33 SSE 18 30 30.01 1016 10 16 0.00 0.00
6:52 pm 18:52 Partly Cloudy 73 22.8 43 6.1 34 34 SE 16 26 30.01 1016 10 16 0.00 0.00
7:52 pm 19:52 Partly Cloudy 69 20.6 43 6.1 39 39 SE 16 26 30.02 1017 10 16 0.00 0.00
8:52 pm 20:52 Mostly Clear 67 19.4 43 6.1 42 42 SE 16 26 30.04 1017 10 16 0.00 0.00
9:52 pm 21:52 Mostly Clear 64 17.8 43 6.1 46 46 SE 15 24 30.05 1018 10 16 0.00 0.00
10:52 pm 22:52 Mostly Clear 61 16.1 44 6.7 54 54 SSE 9 15 30.06 1018 10 16 0.00 0.00
11:52 pm 23:52 Clear 58 14.4 44 6.7 60 60 SSE 9 15 30.07 1018 10 16 0.00 0.00

Powered by AerisWeather